Regional Weather Roundup
Issued by NWS

Home | Current Version | Previous Version | Text Only | Print | Product List | Glossary Off
Versions: 1 2 3 4 5 6 7 8 9 10 11 12 13 14 15 16 17 18 19 20 21 22 23 24 25 26 27 28 29 30 31 32 33 34 35 36 37 38 39 40 41 42 43 44 45 46 47 48 49 50

000
ASUS45 KPSR 021010
RWRAZ

ARIZONA HOURLY REGIONAL WEATHER ROUNDUP
NATIONAL WEATHER SERVICE PHOENIX AZ
300 AM MST WED SEP 02 2015

NOTE: FAIR INDICATES FEW OR NO CLOUDS BELOW 12,000 FEET WITH NO
SIGNIFICANT WEATHER AND/OR OBSTRUCTIONS TO VISIBILITY.

AZZ001>003-036-021100-
NORTHWEST ARIZONA

CITY           SKY/WX    TMP DP  RH WIND       PRES   REMARKS
BULLHEAD CITY  FAIR      91  54  27 S13       29.82R
KINGMAN        FAIR      74  50  42 SE10      30.03R
$$

AZZ004>008-015-016-018-021100-
NORTH CENTRAL ARIZONA

CITY           SKY/WX    TMP DP  RH WIND       PRES   REMARKS
GRAND CANYON   FAIR      50  48  93 CALM      30.28S
PRESCOTT       FAIR      68  52  56 S6        30.18S
FLAGSTAFF      FAIR      50  47  89 CALM      30.32R
PAYSON         CLOUDY    66  54  63 CALM      30.21S
PAGE           FAIR      71  51  49 W3        30.08R
$$

AZZ009>014-017-021100-
NORTHEAST ARIZONA

CITY           SKY/WX    TMP DP  RH WIND       PRES   REMARKS
WINSLOW        MOCLDY    62  58  86 CALM      30.17S
SAINT JOHNS    FAIR      62  54  74 CALM      30.23R
WINDOW ROCK    FAIR      51  48  89 S5        30.30S
SHOW LOW       CLOUDY    59  54  82 S8        30.29S
$$

AZZ023-021100-
GREATER PHOENIX AREA

CITY           SKY/WX    TMP DP  RH WIND       PRES   REMARKS
PHOENIX        CLOUDY    89  64  43 E8        29.89R THUNDER
LUKE AFB       FAIR      88  59  37 SW8       29.88R
DEER VALLEY    FAIR      86  58  38 E5        29.91S
SCOTTSDALE     MOCLDY    86  61  42 SE3       29.93S
MESA-GATEWAY   TSTM      79  68  69 SE8       29.94S
$$

AZZ027-028-021100-
SOUTHWEST MARICOPA COUNTY AND PINAL COUNTY

CITY           SKY/WX    TMP DP  RH WIND       PRES   REMARKS
CASA GRANDE    FAIR      86  63  45 CALM      29.92S
GILA BEND      FAIR      85  45  25 S7        29.88R
$$

AZZ503-504-507>509-021100-
SOUTHEAST ARIZONA

CITY           SKY/WX    TMP DP  RH WIND       PRES   REMARKS
TUCSON         FAIR      83  61  47 S7        30.04R
DAVIS-MONTHAN  FAIR      79  64  60 SE6       30.02S
NOGALES        FAIR      72  61  68 CALM      30.12F
SIERRA VISTA   CLOUDY    71  56  59 SE3       30.18S
DOUGLAS        FAIR      70  59  68 E6        30.13F
SAFFORD        FAIR      73  68  84 CALM      30.04S
$$

AZZ020-021-025-026-031-021100-
SOUTHWEST ARIZONA

CITY           SKY/WX    TMP DP  RH WIND       PRES   REMARKS
YUMA           FAIR      86  68  54 SE12      29.80S
$$

CAZ031-033-041-043-047-048-061-021100-
SOUTHERN CALIFORNIA

CITY           SKY/WX    TMP DP  RH WIND       PRES   REMARKS
DOWNTOWN L.A.  CLOUDY    69  62  78 CALM      29.94F
L.A. AIRPORT   CLOUDY    70  62  76 CALM      29.95F
SAN DIEGO      CLOUDY    69  60  73 CALM      29.97F
BURBANK        CLOUDY    69  60  73 CALM      29.95F
ONTARIO        CLOUDY    67  60  78 W7        29.97S
RIVERSIDE      CLOUDY    67  60  78 W3        29.97F
PALM SPRINGS   FAIR      80  55  42 CALM      29.84S
EL CENTRO NAS  FAIR      82  38  20 W5        29.80S
IMPERIAL       FAIR      86  50  28 CALM      29.78S
BLYTHE         FAIR      84  60  44 S6        29.82R
NEEDLES        FAIR      91  52  26 SW13      29.83S
$$

NVZ020-UTZ003-021100-
SOUTHERN NEVADA-UTAH

CITY           SKY/WX    TMP DP  RH WIND       PRES   REMARKS
LAS VEGAS      MOCLDY    86  55  34 S7        29.86R
SALT LAKE CITY MOCLDY    77  41  27 S20G28    29.95R
$$

NMZ009-TXZ055-021100-
NEW MEXICO-WEST TEXAS

CITY           SKY/WX    TMP DP  RH WIND       PRES   REMARKS
ALBUQUERQUE    PTCLDY    68  44  42 SE7       30.19S
EL PASO        MOCLDY    77  48  35 SE3       30.06S
$$


........................KEY........................
SKY/WX - SKY CONDITION/WEATHER
TMP    - TEMPERATURE IN FAHRENHEIT
DP     - DEW POINT IN FAHRENHEIT
RH     - RELATIVE HUMIDITY IN PERCENT
WIND   - DIRECTION AND SPEED IN MILES PER HOUR (MPH)
VRB    - VARIABLE WIND DIRECTION
PRES   - MEAN SEA LEVEL PRESSURE IN INCHES OF MERCURY
         F - FALLING PRESSURE   R - RISING PRESSURE
         S - STEADY PRESSURE
VSB    - VISIBILITY IN MILES
HX     - HEAT INDEX IN FAHRENHEIT
WCI    - WIND CHILL INDEX IN FAHRENHEIT
TC     - TEMPERATURE IN CELSIUS WHICH IS ALSO KNOWN AS
         TEMPERATURE IN CENTIGRADE
AFB    - AIR FORCE BASE
         LUKE AFB IS LUKE AIR FORCE BASE
         DAVIS-MONTHAN IS DAVIS-MONTHAN AIR FORCE BASE
NAS    - NAVAL AIR STATION
         EL CENTRO NAS IS EL CENTRO NAVAL AIR STATION
N/A    - NOT AVAILABLE



USA.gov is the U.S. government's official web portal to all federal, state and local government web resources and services.